Regional Weather Roundup
Issued by NWS

Home | Current Version | Previous Version | Graphics & Text | Print | Product List | Glossary On
Versions: 1 2 3 4 5 6 7 8 9 10 11 12 13 14 15 16 17 18 19 20 21 22 23 24 25 26 27 28 29 30 31 32 33 34 35 36 37 38 39 40 41 42 43 44 45 46 47 48 49 50
000
ASUS43 KOAX 311410
RWRNE

WEATHER ROUNDUP FOR NEBRASKA
NATIONAL WEATHER SERVICE OMAHA NE
800 AM CST SAT JAN 31 2015

NOTES: SATELLITE DATA IS BEING USED TO AUGMENT CLOUD COVER ABOVE
       12000 FEET.
       "FAIR" INDICATES FEW OR NO CLOUDS BELOW 12,000 FEET WITH NO
       SIGNIFICANT WEATHER AND/OR OBSTRUCTIONS TO VISIBILITY.

  * THESE STATIONS DO NOT REPORT WEATHER SUCH AS RAIN...SNOW OR FOG.

NEZ001>004-019>022-054>056-311500-
NEBRASKA PANHANDLE

CITY           SKY/WX    TMP DP  RH WIND       PRES   REMARKS
SCOTTSBLUFF    CLOUDY    32  27  81 NW6       29.94S WCI  26
ALLIANCE       CLOUDY    31  28  89 CALM      29.93F
CHADRON        CLOUDY    27  24  89 CALM      29.99S
KIMBALL        CLOUDY    32  27  80 NW3       29.90R
SIDNEY         LGT SNOW  31  29  92 N6        29.92R FOG     WCI  25
$$

NEZ057>060-069>072-079>082-311500-
SOUTHWEST NEBRASKA

CITY           SKY/WX    TMP DP  RH WIND       PRES   REMARKS
NORTH PLATTE   CLOUDY    33  30  88 E8        29.97F WCI  26
IMPERIAL       FOG       32  31  96 E5        29.94R VSB 3/4 WCI  27
LEXINGTON      LGT SNOW  33  32  95 SE6       30.01S WCI  28
MCCOOK         CLOUDY    34  32  92 SE7       29.96F FOG     WCI  28
OGALLALA       FOG       33  33 100 E3        29.94S VSB 1/2
$$

NEZ005>010-023>029-035>040-094-311500-
NORTH CENTRAL NEBRASKA

CITY           SKY/WX    TMP DP  RH WIND       PRES   REMARKS
VALENTINE      CLOUDY    29  25  85 NE10      30.01S WCI  20
AINSWORTH      CLOUDY    31  30  96 NE8       30.01R WCI  23
BROKEN BOW     CLOUDY    34  31  88 SE6       30.00F WCI  29
O`NEILL        CLOUDY    33  32  99 CALM      30.04S
ORD            CLOUDY    34  31  88 S8        30.03F WCI  27
THEDFORD       FOG       36  35  96 CALM      29.97F VSB 1/2
$$

NEZ041-046>049-061>064-073>077-083>087-311500-
SOUTH CENTRAL NEBRASKA

CITY           SKY/WX    TMP DP  RH WIND       PRES   REMARKS
GRAND ISLAND   LGT SNOW  32  31  96 S10       30.07F FOG     WCI  24
AURORA         LGT SNOW  33  33 100 S7        30.08S WCI  27
HASTINGS       LGT SNOW  32  30  92 S10       30.05F FOG     WCI  24
HEBRON         LGT SNOW  33  31  94 S9        30.12F WCI  25
HOLDREGE       LGT SNOW  32  31  96 S8        30.01F WCI  25
KEARNEY *      CLOUDY    32  30  93 S8        30.04F WCI  25
YORK           MIX PCPN  32  32 100 S9        30.10F WCI  24
$$

NEZ011>018-030>034-042>045-311500-
NORTHEAST NEBRASKA

CITY           SKY/WX    TMP DP  RH WIND       PRES   REMARKS
NORFOLK        CLOUDY    36  33  89 S9        30.07F WCI  29
ALBION         CLOUDY    35  31  87 S6        30.07S WCI  30
BLAIR          CLOUDY    38  34  85 S15       30.13S WCI  29
COLUMBUS *     CLOUDY    36  28  75 S12       30.11F WCI  27
FREMONT        CLOUDY    37  34  87 S10       30.13S WCI  30
TEKAMAH        CLOUDY    37  33  85 S8        30.14S WCI  31
WAYNE          CLOUDY    36  33  89 S10       30.09S WCI  28
$$

NEZ050>053-065>068-078-088>093-311500-
SOUTHEAST NEBRASKA

CITY           SKY/WX    TMP DP  RH WIND       PRES   REMARKS
LINCOLN        FLURRIES  34  32  92 S9        30.15F WCI  27
OMAHA EPPLEY   CLOUDY    37  34  89 S9        30.16F WCI  30
BEATRICE       LGT SNOW  32  32  99 S10       30.15F WCI  24
FALLS CITY     RAIN      34  33  96 S7        30.21F FOG     WCI  28
NEBRASKA CITY  LGT RAIN  34  34  99 S13       30.18S WCI  25
PLATTSMOUTH    LGT RAIN  34  32  92 S12       30.16F WCI  26
$$

NEZ044-045-051>053-067-311500-
OMAHA AREA

CITY           SKY/WX    TMP DP  RH WIND       PRES   REMARKS
OMAHA EPPLEY   CLOUDY    37  34  89 S9        30.16F WCI  30
BLAIR          CLOUDY    38  34  85 S15       30.13S WCI  29
FREMONT        CLOUDY    37  34  87 S10       30.13S WCI  30
MILLARD        DRIZZLE   37  35  91 S7        30.16S WCI  32
OFFUTT AFB     LGT RAIN  36  35  94 S7        30.16S WCI  31
PLATTSMOUTH    LGT RAIN  34  32  92 S12       30.16F WCI  26
WAHOO          DRIZZLE   36  32  87 S10       30.14S WCI  28
$$



USA.gov is the U.S. government's official web portal to all federal, state and local government web resources and services.